星链-30176 (STARLINK-30176 )

导读 | 豆包AI

STARLINK-30176是美国太空探索技术公司星链计划的卫星,于2023年7月28日发射升空,归属美国所有,属于低轨卫星星座的组成部分,旨在为全球范围内用户提供高速互联网接入服务,进一步扩充星链星座的通信覆盖能力与网络容量,推动星链星座的部署进程。

Basic Information
目录编号:
57477
目录名称:
STARLINK-30176
国际标识:
2023-107W
轨道中心:
EARTH
卫星名称:
星链-30176
卫星全名:
星链-30176 (STARLINK-30176 )
卫星状态:
在轨 (已飞行1007 天)
发射日期:
2023-07-28 UTC
国别 :
美国 (US)
星等 :
--
Orbit Information
数据来源 国际轨道数据
星历时间: 2026-04-30T12:09:02+0800
13小时前
查看轨道信息
半长轴: 6861.145km
偏心率: 0.0001535
轨道倾角: 43.005°
近地点辐角 255.784°
升交点赤经 45.103°
平近点角 104.285°
近地点: 481.954km
远地点: 484.062km
周期: 94.266分钟
每日圈数: 15.275939
Detailed Information
固有亮度:
5
最大亮度:
0.3
卫星平台:
Starlink v2.0 mini
覆盖范围:
全球
运营商:
太空探索技术公司
运营商所在国:
美国
制造商(研发单位):
太空探索技术公司
制造商所在国:
美国
使用方式:
暂无
Satellite Introduction
星链(Starlink)计划是由太空探索技术公司(SpaceX)提出的一个巨型低轨卫星互联网星座项目,计划在2019年至2024年间在太空搭建由约1.2万颗卫星组成的“星链”网络,其中1584颗将部署在地球上空550千米处的近地轨道,并从2020年开始工作。该卫星仍在工作。
2D Orbit Map
3D Orbit Map
Orbit Altitude Analysis Chart
Orbit Inclination Analysis Chart
Orbit Comprehensive Analysis Chart
View Comprehensive Chart